ICT,Max TemperatureF,Mean TemperatureF,Min TemperatureF,Max Dew PointF,MeanDew PointF,Min DewpointF,Max Humidity, Mean Humidity, Min Humidity, Max Sea Level PressureIn, Mean Sea Level PressureIn, Min Sea Level PressureIn, Max VisibilityMiles, Mean VisibilityMiles, Min VisibilityMiles, Max Wind SpeedMPH, Mean Wind SpeedMPH, Max Gust SpeedMPH,PrecipitationIn, CloudCover, Events, WindDirDegrees
2012-3-1,89,81,73,77,74,70,100,79,52,29.83,29.78,29.71,6,5,2,13,5,,0.00,6,Rain-Thunderstorm,296
2012-3-2,89,82,75,77,75,72,100,85,55,29.83,29.76,29.68,6,5,2,15,5,,0.00,6,Rain-Thunderstorm,313
2012-3-3,89,82,75,79,76,72,100,86,55,29.83,29.75,29.68,6,5,2,13,3,,0.00,6,Rain,77
2012-3-4,87,81,75,77,76,73,100,89,62,29.83,29.77,29.68,6,4,2,14,4,,0.00,6,Rain,342
2012-3-5,91,83,75,79,76,73,100,86,55,29.80,29.73,29.65,6,5,2,13,3,,0.00,6,Rain-Thunderstorm,29
2012-3-6,87,82,77,79,76,73,100,86,62,29.77,29.72,29.65,6,6,4,14,3,,0.00,5,Rain,2
2012-3-7,89,82,75,79,75,73,100,83,62,29.74,29.68,29.62,6,5,3,10,3,,0.00,5,Rain,317
2012-3-8,84,80,75,79,77,75,100,96,79,29.80,29.73,29.68,6,5,2,8,2,,0.00,6,Rain,294
2012-3-9,86,82,77,79,76,72,100,86,66,29.77,29.72,29.65,5,4,3,12,5,,0.00,6,Rain,293
2012-3-10,89,82,75,79,75,72,100,82,62,29.80,29.73,29.65,5,5,3,10,4,,0.00,6,Rain,111
2012-3-11,91,84,78,79,74,70,100,73,49,29.86,29.77,29.71,6,6,5,15,5,,0.00,6,,86
2012-3-12,89,82,75,79,72,66,100,72,49,29.92,29.86,29.80,6,6,5,12,5,,0.00,6,,80
2012-3-13,91,83,75,79,76,72,100,80,52,29.92,29.87,29.80,6,6,2,12,3,,0.00,5,Rain-Thunderstorm,52
2012-3-14,91,82,73,79,75,72,100,84,55,29.92,29.87,29.80,6,5,1,15,3,,0.00,5,Rain,92
2012-3-15,91,83,75,79,75,68,100,79,46,29.95,29.87,29.80,6,6,5,14,3,,0.00,6,,78
2012-3-16,89,83,77,79,77,72,100,82,55,29.92,29.84,29.77,6,6,5,14,3,,0.00,6,,273
2012-3-17,89,83,77,81,76,70,100,82,62,29.89,29.83,29.77,6,6,5,14,3,,0.00,6,,318
2012-3-18,89,83,77,79,75,72,100,77,58,29.92,29.84,29.77,6,5,4,13,3,,0.00,5,,304
2012-3-19,87,82,77,82,76,70,100,82,55,29.92,29.86,29.77,6,5,2,9,2,,0.00,6,Thunderstorm,328
2012-3-20,87,81,75,77,74,70,100,75,58,29.95,29.86,29.80,6,5,4,20,4,28,0.00,5,,303
2012-3-21,87,79,71,73,71,70,100,73,55,29.92,29.84,29.77,5,4,4,15,5,,0.00,6,,300
2012-3-22,87,81,75,75,71,70,100,69,58,29.92,29.84,29.77,4,4,4,15,6,,0.00,6,,302
2012-3-23,87,80,73,75,72,68,100,75,52,29.92,29.87,29.80,5,4,3,16,4,,0.00,6,,287
2012-3-24,87,79,71,77,71,66,100,74,49,29.92,29.87,29.80,6,5,3,15,4,,0.00,4,,287
2012-3-25,91,82,73,75,72,66,100,73,46,29.92,29.86,29.80,6,5,4,14,4,,0.00,4,,52
2012-3-26,89,83,77,77,74,66,100,78,46,29.95,29.87,29.80,6,5,3,15,4,,0.00,4,Rain,56
2012-3-27,91,82,73,79,75,72,100,85,52,29.95,29.90,29.83,5,5,1,13,4,24,0.00,6,Rain-Thunderstorm,69
2012-3-28,89,81,73,79,75,70,100,83,55,29.98,29.91,29.83,4,4,2,12,3,,0.00,6,Rain,347
2012-3-29,89,82,75,77,76,73,100,79,59,29.95,29.87,29.80,5,4,3,12,3,,0.00,6,,235
2012-3-30,87,82,73,81,77,73,100,81,66,29.92,29.85,29.77,5,4,2,14,7,,0.00,6,Rain,286
2012-3-31,87,80,73,81,76,72,100,84,66,29.92,29.86,29.80,6,4,3,14,7,,0.00,6,Rain-Thunderstorm,281